[[{"header":{"parameterUnit":"m.s-1","parameterCategory":1,"la1":30.2991,"la2":30.254,"lo1":-89.0895,"lo2":-89.0444,"dy":0.0017,"dx":0.0017,"nx":28,"ny":28,"refTime":"2024-06-21T21:00:00:Z","depth":0,"parameterNumber":2,"parameterNumberName":"U-component_of_WINDS"},"data":[0,0,0,0,0,0,0,0,0,0,0,0,0,0,0,0,0,0,0,0,0,0,0,0,0,0,0,0,0,0,0,0,0,0,0,0,0,0,0,0,0,0,0,0,0,0,0,0,0,0,0,0,0,0,0,0,0,0,-1.0113,-1.0112,0,-1.0052,-1.0052,-1.0051,-0.9976,-0.9974,-0.9973,-0.9972,-0.991,-0.9909,-0.9909,0,0,0,0,0,0,0,0,0,0,0,0,0,-1.0165,-1.0165,-1.0113,-1.0112,-1.0111,-1.0052,-1.0052,-1.0051,-0.9976,-0.9974,-0.9973,-0.9972,-0.991,-0.9909,-0.9909,0,0,0,0,0,0,0,0,0,0,0,0,0,-1.0127,-1.0164,-1.0113,-1.0067,-1.0062,-1.0053,-1.0051,-1.005,-0.9976,-0.9974,-0.9973,-0.9971,-0.991,-0.9909,-0.9909,-0.9939,0,0,-0.9906,-0.9906,0,0,0,0,0,0,0,0,-1.013,-1.0126,-1.0074,-1.007,-1.0065,-1.002,-1.0047,-1.0013,-0.9977,-1.0009,-0.9972,-0.997,-0.9948,-0.9944,-0.9936,-0.9936,-0.9934,-0.9906,-0.9905,-0.9905,-0.9905,0,0,0,0,0,0,0,-1.0132,-1.0128,-1.0089,-1.0074,-1.0068,-1.005,-1.0042,-1.004,-0.9989,-1.0006,-1.0,-0.9994,-0.9945,-0.9937,-0.9934,-0.9933,-0.9906,-0.9905,-0.9905,-0.9904,-0.9957,-0.9959,0,0,0,0,0,0,-1.0142,-1.013,-1.0091,-1.0087,-1.0093,-1.005,-1.0042,-1.0036,-0.9989,-0.998,-0.9996,-0.9991,-0.994,-0.9935,-0.9932,-0.9966,-0.9905,-0.9904,-0.9904,-0.9955,-0.9958,-0.996,0,0,0,0,0,0,-1.0143,-1.0139,-1.0093,-1.0107,-1.01,-1.0051,-1.0045,-1.0036,-1.0028,-0.9981,-0.9972,-0.9997,-0.9938,-0.9933,-0.9938,-0.9963,-0.9904,-0.9903,-0.9953,-0.9956,-0.9959,-1.0034,0,0,0,0,0,0,-1.0145,-1.014,-1.0151,-1.0108,-1.01,-1.0101,-1.0046,-1.0036,-1.0027,-1.002,-0.998,-0.9972,-0.9936,-0.994,-0.9938,-0.9961,-0.9903,-0.9951,-0.9954,-0.9958,-1.0029,-1.0039,-1.0048,0,0,0,0,0,-1.0147,-1.0174,-1.0152,-1.0147,-1.0112,-1.0102,-1.0097,-1.0056,-1.0029,-1.004,-1.001,-0.9973,-0.9961,-0.9941,-0.9938,-0.9961,-0.9949,-0.9953,-0.9957,-1.0025,-1.0037,-1.0047,0,0,0,0,0,0,-1.022,-1.0167,-1.0142,-1.0156,-1.0134,-1.009,-1.0102,-1.007,-1.0055,-1.0049,-0.9998,-0.999,-1.0002,-0.9982,-0.9961,-0.9989,-0.9949,-0.9953,-1.0002,-1.0013,-1.0022,-1.0027,-0.9902,0,0,0,0,0,-1.0238,-1.0234,-1.0188,-1.0205,-1.0195,-1.0151,-1.0145,-1.0115,-1.009,-1.0081,-1.0051,-1.0029,-1.002,-1.0015,-1.0005,-1.0026,-1.0017,-1.004,-1.005,-1.0057,-1.0061,-1.0073,-1.0083,-0.9974,-0.9974,-0.9974,0,0,-1.0274,-1.0245,-1.0246,-1.0219,-1.0198,-1.0197,-1.0143,-1.0143,-1.0141,-1.0081,-1.0085,-1.0063,-1.0034,-1.0049,-1.0053,-1.0032,-1.009,-1.0063,-1.0069,-1.0069,-1.0079,-1.0089,-1.0098,-0.9977,-0.9976,-0.9976,0,0,-1.034,-1.0317,-1.0329,-1.031,-1.028,-1.0251,-1.0254,-1.0215,-1.0198,-1.0201,-1.0156,-1.0154,-1.0139,-1.0121,-1.0111,-1.0172,-1.0138,-1.017,-1.0218,-1.023,-1.0239,-1.0247,-1.027,-1.0279,-1.0174,-1.0174,-1.0175,0,-1.0389,-1.0383,-1.0339,-1.0342,-1.0332,-1.0278,-1.029,-1.0274,-1.0243,-1.0238,-1.0214,-1.0196,-1.0174,-1.0184,-1.0199,-1.0192,-1.0195,-1.0174,-1.0241,-1.0248,-1.0255,-1.0276,-1.0285,-1.0179,-1.0178,-1.0178,-1.0177,0,-1.0446,-1.0443,-1.0457,-1.0428,-1.042,-1.0428,-1.0385,-1.0382,-1.0354,-1.0327,-1.0332,-1.0303,-1.0286,-1.0286,-1.0258,-1.0293,-1.0281,-1.0251,-1.021,-1.027,-1.029,-1.0297,-1.0184,-1.0183,-1.0182,-1.0181,0,0,-1.0555,-1.0503,-1.0509,-1.0496,-1.046,-1.0458,-1.0464,-1.0448,-1.0447,-1.0427,-1.0432,-1.0422,-1.0394,-1.0382,-1.0351,-1.0362,-1.0415,-1.033,-1.0328,-1.0348,-1.0454,-1.0478,-1.0488,-1.0392,-1.0393,-1.0394,-1.0456,0,-1.0614,-1.0621,-1.0582,-1.06,-1.0598,-1.0548,-1.0553,-1.0533,-1.0508,-1.0504,-1.0476,-1.0471,-1.0433,-1.0426,-1.0434,-1.0406,-1.0435,-1.0401,-1.0397,-1.0397,-1.0406,-1.0498,-1.0523,-1.0583,-1.0464,-1.0465,-1.0466,0,-1.0684,-1.067,-1.0688,-1.0653,-1.065,-1.0656,-1.0639,-1.0635,-1.0611,-1.0593,-1.0581,-1.0546,-1.0551,-1.0512,-1.0518,-1.0496,-1.0492,-1.0478,-1.048,-1.0478,-1.0435,-1.05,-1.06,-1.061,-1.0477,-1.0476,-1.0475,0,-1.0763,-1.0748,-1.0757,-1.0748,-1.0707,-1.0712,-1.0696,-1.067,-1.0664,-1.0649,-1.0645,-1.0631,-1.0624,-1.0615,-1.0578,-1.0553,-1.0589,-1.0547,-1.0575,-1.0576,-1.0585,-1.0585,-1.0688,-1.0582,-1.0581,-1.0581,-1.0581,0,-1.0834,-1.0847,-1.0792,-1.0798,-1.0812,-1.0768,-1.0783,-1.0761,-1.0739,-1.0741,-1.0696,-1.0698,-1.0649,-1.0646,-1.0617,-1.0628,-1.0625,-1.0611,-1.0603,-1.0615,-1.0618,-1.0612,-1.0608,-1.0584,-1.0583,-1.0583,-1.0582,0,-1.0925,-1.0888,-1.0895,-1.0857,-1.0847,-1.0859,-1.0827,-1.0831,-1.0805,-1.0807,-1.0805,-1.0764,-1.0759,-1.0721,-1.0707,-1.0687,-1.0709,-1.0693,-1.0718,-1.0713,-1.0744,-1.0742,-1.0847,-1.0859,-1.0745,-1.0746,-1.0747,0,-1.0973,-1.0982,-1.0945,-1.0943,-1.0928,-1.0925,-1.0919,-1.0876,-1.0871,-1.0846,-1.0854,-1.0845,-1.0836,-1.083,-1.0799,-1.0789,-1.0773,-1.081,-1.0771,-1.0783,-1.0775,-1.0775,-1.0776,-1.0819,-1.082,-1.0821,-1.0822,0,-1.1062,-1.1044,-1.1036,-1.1023,-1.1017,-1.1005,-1.0989,-1.099,-1.0943,-1.0941,-1.0935,-1.0928,-1.0914,-1.0907,-1.0892,-1.0875,-1.0842,-1.0835,-1.0841,-1.0854,-1.0869,-1.0863,-1.0742,-1.0833,-1.0832,-1.0831,-1.0831,-1.083,-1.1133,-1.114,-1.1115,-1.1109,-1.1093,-1.1081,-1.1083,-1.1058,-1.1052,-1.1038,-1.1013,-1.1012,-1.099,-1.0966,-1.0952,-1.0951,-1.0931,-1.094,-1.0942,-1.0945,-1.0952,-1.0869,-1.0948,-1.0948,-1.0947,-1.0947,-1.0947,0,-1.1222,-1.1204,-1.1198,-1.1179,-1.1175,-1.1144,-1.1126,-1.1124,-1.1123,-1.1105,-1.1098,-1.1092,-1.1085,-1.1055,-1.1045,-1.105,-1.1035,-1.1049,-1.1048,-1.1046,-1.097,-1.0966,-1.1062,-1.1062,-1.1062,-1.1062,-1.1062,-1.1062,-1.1267,-1.1277,-1.1256,-1.1259,-1.1241,-1.1239,-1.1232,-1.1221,-1.1206,-1.1202,-1.1196,-1.1176,-1.1154,-1.1142,-1.1135,-1.1126,-1.1125,-1.1145,-1.1132,-1.1062,-1.105,-1.104,-1.1036,-1.1145,-1.1145,-1.1207,-1.1208,-1.1208]},{"header":{"parameterUnit":"m.s-1","parameterCategory":1,"la1":30.2991,"la2":30.254,"lo1":-89.0895,"lo2":-89.0444,"dy":0.0017,"dx":0.0017,"nx":28,"ny":28,"refTime":"2024-06-21T21:00:00:Z","depth":0,"parameterNumber":3,"parameterNumberName":"V-component_of_WINDS"},"data":[0,0,0,0,0,0,0,0,0,0,0,0,0,0,0,0,0,0,0,0,0,0,0,0,0,0,0,0,0,0,0,0,0,0,0,0,0,0,0,0,0,0,0,0,0,0,0,0,0,0,0,0,0,0,0,0,0,0,2.0124,2.0124,0,2.0126,2.0126,2.0126,2.0148,2.0149,2.0149,2.015,2.0149,2.0149,2.0148,0,0,0,0,0,0,0,0,0,0,0,0,0,2.0135,2.0135,2.0124,2.0124,2.0124,2.0126,2.0126,2.0126,2.0148,2.0149,2.015,2.015,2.015,2.0149,2.0148,0,0,0,0,0,0,0,0,0,0,0,0,0,2.0133,2.0135,2.0124,2.0135,2.0136,2.0126,2.0126,2.0126,2.0148,2.0149,2.015,2.0151,2.015,2.0149,2.0148,2.0127,0,0,2.0146,2.0145,0,0,0,0,0,0,0,0,2.0133,2.0133,2.0133,2.0134,2.0136,2.0138,2.013,2.0126,2.0148,2.0143,2.015,2.0151,2.0145,2.0144,2.0143,2.0127,2.0127,2.0146,2.0145,2.0145,2.0145,0,0,0,0,0,0,0,2.0133,2.0133,2.0125,2.0133,2.0135,2.0139,2.014,2.013,2.0139,2.0144,2.0146,2.0146,2.0145,2.0144,2.0143,2.0127,2.0146,2.0145,2.0144,2.0144,2.0094,2.0093,0,0,0,0,0,0,2.0132,2.0133,2.0125,2.0125,2.0137,2.0138,2.0139,2.0136,2.014,2.0141,2.0145,2.0147,2.0145,2.0144,2.0143,2.0119,2.0145,2.0144,2.0144,2.0094,2.0093,2.0092,0,0,0,0,0,0,2.0133,2.0131,2.0125,2.0129,2.0129,2.0137,2.0134,2.0136,2.0134,2.014,2.0142,2.0142,2.0145,2.0144,2.0131,2.0119,2.0144,2.0143,2.0095,2.0094,2.0093,2.0069,0,0,0,0,0,0,2.0133,2.0131,2.0124,2.0129,2.0128,2.0113,2.0133,2.0135,2.0133,2.0135,2.0138,2.0139,2.0146,2.0132,2.013,2.0118,2.0142,2.0097,2.0095,2.0093,2.0071,2.0067,2.0064,0,0,0,0,0,2.0133,2.0116,2.0123,2.0122,2.0119,2.0112,2.0112,2.0121,2.0132,2.0124,2.0128,2.0139,2.0121,2.0131,2.0129,2.0116,2.0097,2.0095,2.0093,2.0073,2.0068,2.0064,0,0,0,0,0,0,2.0108,2.0117,2.0125,2.0109,2.011,2.0116,2.0106,2.0116,2.0113,2.0115,2.0126,2.0126,2.0111,2.0112,2.0123,2.0096,2.0111,2.0108,2.0096,2.0091,2.0088,2.0088,2.0142,0,0,0,0,0,2.0101,2.0095,2.0103,2.0088,2.0089,2.0097,2.0095,2.0102,2.0103,2.0103,2.0106,2.0105,2.01,2.0096,2.0091,2.0072,2.0072,2.0062,2.0059,2.0056,2.0053,2.0044,2.0039,2.0086,2.0086,2.0086,0,0,2.0085,2.009,2.0085,2.0084,2.0085,2.0078,2.0097,2.0089,2.0084,2.0101,2.0089,2.0092,2.0092,2.0076,2.0069,2.0076,2.0041,2.0053,2.0051,2.005,2.0041,2.0037,2.0033,2.0085,2.0085,2.0085,0,0,2.0054,2.0057,2.0046,2.0047,2.005,2.0056,2.0053,2.0058,2.006,2.0049,2.0062,2.0055,2.0045,2.0045,2.0044,2.0014,2.0023,2.0012,1.9993,1.9983,1.998,1.9977,1.9966,1.9962,2.0009,2.0009,2.0009,0,2.0035,2.0026,2.0038,2.003,2.0029,2.0045,2.0033,2.0034,2.0034,2.0032,2.0041,2.003,2.0031,2.0015,2.0008,2.0006,2.0003,2.0011,1.998,1.9976,1.9974,1.9964,1.996,2.0008,2.0008,2.0008,2.0008,0,2.0002,1.9996,1.9986,1.9988,1.9985,1.9975,1.9985,1.9981,1.9989,1.9994,1.9982,1.9985,1.9981,1.9978,1.9984,1.9963,1.9968,1.9978,1.9993,1.9968,1.9958,1.9955,2.0006,2.0006,2.0007,2.0007,0,0,1.9954,1.9964,1.996,1.9961,1.9965,1.996,1.9951,1.9948,1.9945,1.9945,1.9937,1.9929,1.9938,1.9937,1.9944,1.9936,1.9912,1.9947,1.9947,1.994,1.9889,1.9881,1.9877,1.9919,1.9918,1.9917,1.9889,0,1.9925,1.991,1.9921,1.9904,1.9899,1.9915,1.9907,1.9908,1.9913,1.9908,1.9913,1.9907,1.992,1.992,1.9912,1.9916,1.9902,1.9919,1.9911,1.991,1.991,1.9872,1.9864,1.9837,1.9885,1.9885,1.9884,0,1.9888,1.9888,1.9871,1.9877,1.9875,1.9868,1.9867,1.9862,1.9864,1.9868,1.9867,1.9877,1.9867,1.9883,1.987,1.9881,1.9879,1.988,1.9879,1.9879,1.9896,1.987,1.9828,1.9824,1.9879,1.9879,1.988,0,1.9855,1.985,1.984,1.984,1.9847,1.9842,1.9844,1.9847,1.9845,1.9844,1.9843,1.984,1.9838,1.9836,1.9844,1.9855,1.983,1.9846,1.9833,1.9833,1.9827,1.9827,1.9784,1.9825,1.9825,1.9826,1.9826,0,1.9821,1.981,1.9826,1.9819,1.9807,1.982,1.9807,1.9811,1.9814,1.9808,1.9821,1.9815,1.9827,1.9822,1.9828,1.9817,1.9816,1.9819,1.982,1.9817,1.9817,1.9816,1.9818,1.9824,1.9825,1.9825,1.9825,0,1.9782,1.9792,1.9782,1.979,1.9792,1.9783,1.9789,1.9783,1.9789,1.9781,1.978,1.9789,1.9784,1.9793,1.9788,1.9793,1.9777,1.9782,1.9777,1.9778,1.9764,1.9766,1.9719,1.9713,1.9758,1.9758,1.9757,0,1.976,1.9752,1.976,1.9757,1.976,1.9755,1.9754,1.9766,1.9763,1.9766,1.9759,1.9756,1.9753,1.9745,1.975,1.9747,1.9752,1.9735,1.9751,1.9749,1.9752,1.9752,1.9751,1.9732,1.9732,1.9731,1.9731,0,1.9719,1.9725,1.9723,1.9722,1.9721,1.9721,1.9721,1.9718,1.9731,1.9728,1.9724,1.9722,1.9718,1.9714,1.9713,1.9715,1.9725,1.9726,1.9723,1.972,1.9717,1.9719,1.9768,1.9727,1.9727,1.9727,1.9728,1.9728,1.9688,1.9682,1.9687,1.9684,1.9686,1.9687,1.9682,1.9688,1.9685,1.9684,1.9691,1.9685,1.9688,1.9687,1.9688,1.9683,1.969,1.9685,1.9684,1.9683,1.9681,1.9718,1.9682,1.9683,1.9683,1.9683,1.9683,0,1.9648,1.9652,1.965,1.9651,1.9649,1.966,1.9662,1.9659,1.9654,1.9656,1.9654,1.9649,1.9646,1.9652,1.9649,1.9644,1.9649,1.9643,1.9644,1.9644,1.9674,1.9678,1.964,1.964,1.964,1.964,1.964,1.964,1.9627,1.9618,1.9624,1.9616,1.962,1.9615,1.9616,1.9616,1.9618,1.9612,1.961,1.9614,1.9618,1.9616,1.9613,1.9615,1.9613,1.9606,1.961,1.9638,1.9642,1.9646,1.9649,1.9606,1.9606,1.958,1.9579,1.9579]}]]